Weather Roundup
Issued by NWS

Home | Current Version | Previous Version | Text Only | Print | Product List | Glossary On
Versions: 1 2 3 4 5 6 7 8 9 10 11 12 13 14 15 16 17 18 19 20 21 22 23 24 25 26 27 28 29 30 31 32 33 34 35 36 37 38 39 40 41 42 43 44 45 46 47 48 49 50
000
NZUS93 KARX 271459
HRRWXR

CURRENT HOURLY OBSERVATIONS ACROSS
MUCH OF THE UPPER MISSISSIPPI VALLEY
NATIONAL WEATHER SERVICE LA CROSSE WI
900 AM CST THU NOV 27 2014


...SOUTHEAST MINNESOTA...


CITY           SKY/WX    TMP DP  RH WIND       PRES   REMARKS
ROCHESTER      MOSUNNY   -5  -9  83 NW9       30.44R WCI -22
ROCHESTER/MAYO FAIR       1  -5  76 NW7       30.46R WCI -12
WINONA         MOSUNNY    9   1  72 NW10      30.49F WCI  -6
AUSTIN         MOSUNNY   -6  -9  84 NW9       30.46R WCI -22
ALBERT LEA     MOSUNNY   -8 -13  77 W3        30.47S
DODGE CENTER   MOSUNNY   -4  -8  84 NW8       30.45R WCI -19
PRESTON        SUNNY      0  -4  80 NW9       30.44R WCI -15
OWATONNA       PTSUNNY   -9 -17  70 NW3       30.49R
FARIBAULT      PTSUNNY   -6  -9  84 NW3       30.50R
$$

...ELSEWHERE IN MINNESOTA...


CITY           SKY/WX    TMP DP  RH WIND       PRES   REMARKS
MINNEAPOLIS    SUNNY      0  -6  76 NW10      30.52R WCI -16
INTNL FALLS    PTCLDY   -14 -19  79 CALM      30.44S
DULUTH         MOSUNNY   -6 -13  71 NW10      30.39R WCI -24
RED WING         N/A      3  -6  66 NW5       30.50R WCI  -6
REDWOOD FALLS  MOSUNNY   -7 -12  79 NW6       30.53R WCI -20
MANKATO        PTSUNNY   -8 -15  71 NW5       30.51R WCI -19
WORTHINGTON    PTSUNNY   -8 -11  84 NW3       30.47R
FAIRMONT       MOSUNNY   -8 -11  84 NW8       30.49R WCI -23
$$

...SOUTHWEST WISCONSIN...


CITY           SKY/WX    TMP DP  RH WIND       PRES   REMARKS
LA CROSSE      SUNNY      9  -1  64 N15       30.47R WCI  -8
PRAIRIE DU CHI MOSUNNY   13   5  70 NW12      30.44R WCI  -1
BOSCOBEL       FLURRIES  18   9  68 N9        30.42R WCI   7
LONE ROCK      NOT AVBL
PLATTEVILLE    CLOUDY    20  15  79 NW13      30.37R WCI   8
FORT MC COY    PTSUNNY    8   1  76 NW8       30.45R WCI  -5
CAMP DOUGLAS   CLOUDY     9   7  92 W13       30.40R WCI  -7
VIROQUA        FAIR       9   2  76 NW12      30.38R WCI  -6
WIS DELLS      NOT AVBL
$$

...ELSEWHERE IN WISCONSIN...


CITY           SKY/WX    TMP DP  RH WIND       PRES   REMARKS
MILWAUKEE      PTSUNNY   24  16  71 NW12      30.30R WCI  13
MADISON        LGT SNOW  19  13  77 NW7       30.36R WCI  10
GREEN BAY      CLOUDY    16   8  71 N10       30.34R WCI   4
EAU CLAIRE     NOT AVBL
BLACK RVR FLS  FAIR       5  -1  75 NW5       30.44R WCI  -4
MEDFORD        SUNNY      3  -2  79 NW9       30.34R WCI -12
WAUSAU         SUNNY      9   2  73 NW9       30.34R WCI  -4
WIS RAPIDS     CLOUDY    11   3  70 NW13      30.39R WCI  -4
MARSHFIELD     MOSUNNY    8   1  73 NW8       30.36R WCI  -4
RICE LAKE      SUNNY     -2  -7  78 CALM      30.46R
$$

...NORTHEAST IOWA...


CITY           SKY/WX    TMP DP  RH WIND       PRES   REMARKS
DECORAH        SUNNY      5  -2  72 NW13      30.42R WCI -12
MASON CITY     PTSUNNY   -7 -11  83 NW13      30.50R WCI -27
CHARLES CITY   MOSUNNY   -2  -9  71 NW12      30.47S WCI -20
OELWEIN        SUNNY      5  -2  72 NW17      30.44S WCI -14
$$

...ELSEWHERE IN IOWA...


CITY           SKY/WX    TMP DP  RH WIND       PRES   REMARKS
DES MOINES     MOSUNNY    5  -4  66 NW7       30.53R WCI  -7
IOWA CITY      SUNNY     12   6  77 NW14      30.48R WCI  -3
FORT DODGE     MOSUNNY   -4  -9  77 NW3       30.52R
$$

...NORTHERN ILLINOIS...


CITY           SKY/WX    TMP DP  RH WIND       PRES   REMARKS
CHICAGO-OHARE  PTSUNNY   24  18  77 NW15      30.31R WCI  11
CHICAGO-MIDWAY PTSUNNY   28  21  75 NW15      30.31R WCI  16
MOLINE         LGT SNOW  21  16  81 W15       30.42R WCI   8
ROCKFORD       FLURRIES  25  18  74 NW9       30.36R WCI  15
PEORIA         LGT SNOW  28  21  75 NW7       30.40R WCI  21
$$

NOTE: "FAIR" INDICATES FEW OR NO CLOUDS BELOW 12,000 FEET WITH NO
SIGNIFICANT WEATHER AND/OR OBSTRUCTIONS TO VISIBILITY. WIND
SPEEDS ARE IN MILES-PER-HOUR.



USA.gov is the U.S. government's official web portal to all federal, state and local government web resources and services.